OBJECT AK, 61768

Orbit data source: Space-Track

You're viewing an Uncataloged Satellite

Recently launched and/or uncataloged satellites may have evolving metadata. Metadata may include but not limited to: Owner, Maufacturer, Bus, Motor, and Mission.

OBJECT AK, 61768 is a satellite in SSO that was launched on Mon, 04 Nov 2024 UTC launched from the Vostochny Cosmodrome (VOSTO). Unknown objects in Earth's orbit typically refer to objects detected orbiting the Earth but have not yet been identified or cataloged. These objects could be anything from previously untracked satellites, spent rocket stages, debris from satellite collisions, or even natural meteoroids temporarily captured by Earth's gravity.

Loading next visibility...
Identifier
61768, 2024-199AK
Orbit
SSO
Country
Flag of TBDTBD
Related business
Manufacturer
Lavochkin
Mission
Operational spacecraft
Bus & Motor
Unknown
Mass
Unknown
Launch date (UTC)
2024-11-04 (1 year ago)
Launch vehicle
Unknown
Launch site
Vostochny Cosmodrome (VOSTO)
Object type
Unknown
Shape & HBR
Unknown shape, 0.1 m
Radar Cross Section
Small (<0.1 m²)

Expand to show TLE details & history
Last TLE update: 11 hours ago

TLE from 11 hours ago
0 OBJECT AK
1 61768U 24199AK  25312.88722478  .00029706  00000-0  76909-3 0  9990
2 61768  97.3262 181.2903 0007988  24.9710 335.1920 15.38981938100333
Epoch: 2025-11-08T21:17Z
TLE epoch observation values (Epoch: 2025-11-08T21:17:36.220Z)
Latitude
-0.00011°
Longitude
173.57901°
Altitude
447.286 km
Speed
7.647 km/s
True Right ascension
12h 05m 09s
True Declination
0° 00' 00"
Sunlit
Object was in daylight at epoch
Visualization orbit readout
Latitude
Unknown
Longitude
Unknown
Altitude
Unknown
Speed
Unknown
Apparent Right ascension
Unknown
Apparent Declination
Unknown
Sunlit
N/A
Visualization observer readout
Local Sidereal Time
04:09:24
Azimuth
Unknown
Elevation
Unknown
Doppler factor
Unknown
Orbital elements
Apogee altitude
451.507 km
Perigee altitude
440.605 km
Semi-major axis
6,824.193 km
Eccentricity
0.0008
Inclination
97.3262°
RAAN
181.2903°
Arg. of periapsis
24.971°
True anomaly
335.15356°
Mean anomaly
335.192°
Eccentric anomaly
335.17278°
Mean motion
3.85005 °/min
Orbital period
93.51 mins
BSTAR
0.00076909
Loading maneuver chart data...
Computing Atmospheric mass density...
Loading historical data...
Loading historical data...
Loading historical data...
Loading historical data...
Loading historical data...
Loading historical data...
Loading historical data...

Documentation

Showing up to 5 results
|